Year,Month,Day,Hour,Minute,Value (Times are PST for temperature in C)
2016,08,04,00,00,15.70
2016,08,04,00,01,15.60
2016,08,04,00,02,15.60
2016,08,04,00,03,15.60
2016,08,04,00,04,15.60
2016,08,04,00,05,15.60
2016,08,04,00,06,15.50
2016,08,04,00,07,15.50
2016,08,04,00,08,15.50
2016,08,04,00,09,15.50
2016,08,04,00,10,15.50
2016,08,04,00,11,15.40
2016,08,04,00,12,15.40
2016,08,04,00,13,15.40
2016,08,04,00,14,15.40
2016,08,04,00,15,15.40
2016,08,04,00,16,15.40
2016,08,04,00,17,15.40
2016,08,04,00,18,15.40
2016,08,04,00,19,15.40
2016,08,04,00,20,15.30
2016,08,04,00,21,15.30
2016,08,04,00,22,15.30
2016,08,04,00,23,15.30
2016,08,04,00,24,15.30
2016,08,04,00,25,15.30
2016,08,04,00,26,15.30
2016,08,04,00,27,15.30
2016,08,04,00,28,15.30
2016,08,04,00,29,15.30
2016,08,04,00,30,15.30
2016,08,04,00,31,15.30
2016,08,04,00,32,15.30
2016,08,04,00,33,15.30
2016,08,04,00,34,15.30
2016,08,04,00,35,15.30
2016,08,04,00,36,15.30
2016,08,04,00,37,15.30
2016,08,04,00,38,15.30
2016,08,04,00,39,15.30
2016,08,04,00,40,15.30
2016,08,04,00,41,15.30
2016,08,04,00,42,15.30
2016,08,04,00,43,15.30
2016,08,04,00,44,15.30
2016,08,04,00,45,15.30
2016,08,04,00,46,15.30
2016,08,04,00,47,15.30
2016,08,04,00,48,15.30
2016,08,04,00,49,15.30
2016,08,04,00,50,15.20
2016,08,04,00,51,15.20
2016,08,04,00,52,15.20
2016,08,04,00,53,15.20
2016,08,04,00,54,15.20
2016,08,04,00,55,15.20
2016,08,04,00,56,15.20
2016,08,04,00,57,15.20
2016,08,04,00,58,15.20
2016,08,04,00,59,15.20
2016,08,04,01,00,15.20
2016,08,04,01,01,15.20
2016,08,04,01,02,15.10
2016,08,04,01,03,15.10
2016,08,04,01,04,15.10
2016,08,04,01,05,15.10
2016,08,04,01,06,15.10
2016,08,04,01,07,15.10
2016,08,04,01,08,15.10
2016,08,04,01,09,15.10
2016,08,04,01,10,15.10
2016,08,04,01,11,15.10
2016,08,04,01,12,15.10
2016,08,04,01,13,15.10
2016,08,04,01,14,15.10
2016,08,04,01,15,15.10
2016,08,04,01,16,15.10
2016,08,04,01,17,15.10
2016,08,04,01,18,15.10
2016,08,04,01,19,15.10
2016,08,04,01,20,15.10
2016,08,04,01,21,15.10
2016,08,04,01,22,15.10
2016,08,04,01,23,15.10
2016,08,04,01,24,15.10
2016,08,04,01,25,15.10
2016,08,04,01,26,15.10
2016,08,04,01,27,15.10
2016,08,04,01,28,15.10
2016,08,04,01,29,15.10
2016,08,04,01,30,15.10
2016,08,04,01,31,15.10
2016,08,04,01,32,15.10
2016,08,04,01,33,15.10
2016,08,04,01,34,15.10
2016,08,04,01,35,15.10
2016,08,04,01,36,15.10
2016,08,04,01,37,15.10
2016,08,04,01,38,15.10
2016,08,04,01,39,15.10
2016,08,04,01,40,15.10
2016,08,04,01,41,15.10
2016,08,04,01,42,15.10
2016,08,04,01,43,15.00
2016,08,04,01,44,15.00
2016,08,04,01,45,15.00
2016,08,04,01,46,15.00
2016,08,04,01,47,14.90
2016,08,04,01,48,14.90
2016,08,04,01,49,14.90
2016,08,04,01,50,14.90
2016,08,04,01,51,14.90
2016,08,04,01,52,14.90
2016,08,04,01,53,14.90
2016,08,04,01,54,14.90
2016,08,04,01,55,15.00
2016,08,04,01,56,15.00
2016,08,04,01,57,15.00
2016,08,04,01,58,15.00
2016,08,04,01,59,15.00
2016,08,04,02,00,15.00
2016,08,04,02,01,15.00
2016,08,04,02,02,15.00
2016,08,04,02,03,14.90
2016,08,04,02,04,14.90
2016,08,04,02,05,14.90
2016,08,04,02,06,14.90
2016,08,04,02,07,14.90
2016,08,04,02,08,14.90
2016,08,04,02,09,14.90
2016,08,04,02,10,14.90
2016,08,04,02,11,14.90
2016,08,04,02,12,14.90
2016,08,04,02,13,14.90
2016,08,04,02,14,15.00
2016,08,04,02,15,15.00
2016,08,04,02,16,15.00
2016,08,04,02,17,15.10
2016,08,04,02,18,15.10
2016,08,04,02,19,15.10
2016,08,04,02,20,15.00
2016,08,04,02,21,15.00
2016,08,04,02,22,15.00
2016,08,04,02,23,15.00
2016,08,04,02,24,15.00
2016,08,04,02,25,14.90
2016,08,04,02,26,14.90
2016,08,04,02,27,14.90
2016,08,04,02,28,14.90
2016,08,04,02,29,14.90
2016,08,04,02,30,14.90
2016,08,04,02,31,14.90
2016,08,04,02,32,14.80
2016,08,04,02,33,14.80
2016,08,04,02,34,14.80
2016,08,04,02,35,14.80
2016,08,04,02,36,14.90
2016,08,04,02,37,14.90
2016,08,04,02,38,14.90
2016,08,04,02,39,14.90
2016,08,04,02,40,14.90
2016,08,04,02,41,15.00
2016,08,04,02,42,15.00
2016,08,04,02,43,15.00
2016,08,04,02,44,15.00
2016,08,04,02,45,14.90
2016,08,04,02,46,15.00
2016,08,04,02,47,15.00
2016,08,04,02,48,15.00
2016,08,04,02,49,15.00
2016,08,04,02,50,15.00
2016,08,04,02,51,15.00
2016,08,04,02,52,15.00
2016,08,04,02,53,15.00
2016,08,04,02,54,15.10
2016,08,04,02,55,15.00
2016,08,04,02,56,15.00
2016,08,04,02,57,15.00
2016,08,04,02,58,15.00
2016,08,04,02,59,15.00
2016,08,04,03,00,15.00
2016,08,04,03,01,15.00
2016,08,04,03,02,14.90
2016,08,04,03,03,14.90
2016,08,04,03,04,14.90
2016,08,04,03,05,14.90
2016,08,04,03,06,14.90
2016,08,04,03,07,14.90
2016,08,04,03,08,14.90
2016,08,04,03,09,14.90
2016,08,04,03,10,14.90
2016,08,04,03,11,14.90
2016,08,04,03,12,14.90
2016,08,04,03,13,14.90
2016,08,04,03,14,14.90
2016,08,04,03,15,14.90
2016,08,04,03,16,14.90
2016,08,04,03,17,14.90
2016,08,04,03,18,14.90
2016,08,04,03,19,14.90
2016,08,04,03,20,14.90
2016,08,04,03,21,14.80
2016,08,04,03,22,14.80
2016,08,04,03,23,14.80
2016,08,04,03,24,14.80
2016,08,04,03,25,14.80
2016,08,04,03,26,14.80
2016,08,04,03,27,14.80
2016,08,04,03,28,14.80
2016,08,04,03,29,14.80
2016,08,04,03,30,14.80
2016,08,04,03,31,14.80
2016,08,04,03,32,14.80
2016,08,04,03,33,14.80
2016,08,04,03,34,14.80
2016,08,04,03,35,14.70
2016,08,04,03,36,14.70
2016,08,04,03,37,14.70
2016,08,04,03,38,14.70
2016,08,04,03,39,14.70
2016,08,04,03,40,14.70
2016,08,04,03,41,14.60
2016,08,04,03,42,14.60
2016,08,04,03,43,14.60
2016,08,04,03,44,14.60
2016,08,04,03,45,14.60
2016,08,04,03,46,14.60
2016,08,04,03,47,14.60
2016,08,04,03,48,14.60
2016,08,04,03,49,14.60
2016,08,04,03,50,14.60
2016,08,04,03,51,14.60
2016,08,04,03,52,14.60
2016,08,04,03,53,14.60
2016,08,04,03,54,14.60
2016,08,04,03,55,14.60
2016,08,04,03,56,14.50
2016,08,04,03,57,14.50
2016,08,04,03,58,14.50
2016,08,04,03,59,14.50
2016,08,04,04,00,14.50
2016,08,04,04,01,14.50
2016,08,04,04,02,14.50
2016,08,04,04,03,14.50
2016,08,04,04,04,14.50
2016,08,04,04,05,14.50
2016,08,04,04,06,14.50
2016,08,04,04,07,14.50
2016,08,04,04,08,14.50
2016,08,04,04,09,14.50
2016,08,04,04,10,14.50
2016,08,04,04,11,14.50
2016,08,04,04,12,14.50
2016,08,04,04,13,14.50
2016,08,04,04,14,14.60
2016,08,04,04,15,14.60
2016,08,04,04,16,14.70
2016,08,04,04,17,14.80
2016,08,04,04,18,14.80
2016,08,04,04,19,14.90
2016,08,04,04,20,15.00
2016,08,04,04,21,15.00
2016,08,04,04,22,15.10
2016,08,04,04,23,15.20
2016,08,04,04,24,15.20
2016,08,04,04,25,15.30
2016,08,04,04,26,15.30
2016,08,04,04,27,15.40
2016,08,04,04,28,15.40
2016,08,04,04,29,15.50
2016,08,04,04,30,15.60
2016,08,04,04,31,15.60
2016,08,04,04,32,15.70
2016,08,04,04,33,15.80
2016,08,04,04,34,15.80
2016,08,04,04,35,15.90
2016,08,04,04,36,16.00
2016,08,04,04,37,16.00
2016,08,04,04,38,16.10
2016,08,04,04,39,16.10
2016,08,04,04,40,16.20
2016,08,04,04,41,16.20
2016,08,04,04,42,16.20
2016,08,04,04,43,16.30
2016,08,04,04,44,16.30
2016,08,04,04,45,16.40
2016,08,04,04,46,16.40
2016,08,04,04,47,16.50
2016,08,04,04,48,16.50
2016,08,04,04,49,16.60
2016,08,04,04,50,16.60
2016,08,04,04,51,16.60
2016,08,04,04,52,16.70
2016,08,04,04,53,16.70
2016,08,04,04,54,16.70
2016,08,04,04,55,16.70
2016,08,04,04,56,16.70
2016,08,04,04,57,16.70
2016,08,04,04,58,16.70
2016,08,04,04,59,16.70
2016,08,04,05,00,16.70
2016,08,04,05,01,16.70
2016,08,04,05,02,16.60
2016,08,04,05,03,16.60
2016,08,04,05,04,16.50
2016,08,04,05,05,16.50
2016,08,04,05,06,16.40
2016,08,04,05,07,16.40
2016,08,04,05,08,16.40
2016,08,04,05,09,16.40
2016,08,04,05,10,16.30
2016,08,04,05,11,16.30
2016,08,04,05,12,16.30
2016,08,04,05,13,16.30
2016,08,04,05,14,16.30
2016,08,04,05,15,16.30
2016,08,04,05,16,16.30
2016,08,04,05,17,16.30
2016,08,04,05,18,16.30
2016,08,04,05,19,16.30
2016,08,04,05,20,16.30
2016,08,04,05,21,16.30
2016,08,04,05,22,16.30
2016,08,04,05,23,16.30
2016,08,04,05,24,16.30
2016,08,04,05,25,16.30
2016,08,04,05,26,16.30
2016,08,04,05,27,16.30
2016,08,04,05,28,16.40
2016,08,04,05,29,16.40
2016,08,04,05,30,16.40
2016,08,04,05,31,16.40
2016,08,04,05,32,16.40
2016,08,04,05,33,16.40
2016,08,04,05,34,16.50
2016,08,04,05,35,16.50
2016,08,04,05,36,16.50
2016,08,04,05,37,16.50
2016,08,04,05,38,16.50
2016,08,04,05,39,16.50
2016,08,04,05,40,16.40
2016,08,04,05,41,16.40
2016,08,04,05,42,16.40
2016,08,04,05,43,16.30
2016,08,04,05,44,16.30
2016,08,04,05,45,16.30
2016,08,04,05,46,16.30
2016,08,04,05,47,16.30
2016,08,04,05,48,16.30
2016,08,04,05,49,16.30
2016,08,04,05,50,16.30
2016,08,04,05,51,16.30
2016,08,04,05,52,16.40
2016,08,04,05,53,16.40
2016,08,04,05,54,16.40
2016,08,04,05,55,16.50
2016,08,04,05,56,16.50
2016,08,04,05,57,16.60
2016,08,04,05,58,16.60
2016,08,04,05,59,16.60
2016,08,04,06,00,16.60
2016,08,04,06,01,16.60
2016,08,04,06,02,16.60
2016,08,04,06,03,16.60
2016,08,04,06,04,16.60
2016,08,04,06,05,16.60
2016,08,04,06,06,16.50
2016,08,04,06,07,16.50
2016,08,04,06,08,16.50
2016,08,04,06,09,16.50
2016,08,04,06,10,16.40
2016,08,04,06,11,16.40
2016,08,04,06,12,16.40
2016,08,04,06,13,16.40
2016,08,04,06,14,16.40
2016,08,04,06,15,16.40
2016,08,04,06,16,16.40
2016,08,04,06,17,16.50
2016,08,04,06,18,16.50
2016,08,04,06,19,16.50
2016,08,04,06,20,16.60
2016,08,04,06,21,16.60
2016,08,04,06,22,16.60
2016,08,04,06,23,16.60
2016,08,04,06,24,16.60
2016,08,04,06,25,16.60
2016,08,04,06,26,16.60
2016,08,04,06,27,16.60
2016,08,04,06,28,16.60
2016,08,04,06,29,16.60
2016,08,04,06,30,16.50
2016,08,04,06,31,16.50
2016,08,04,06,32,16.50
2016,08,04,06,33,16.50
2016,08,04,06,34,16.50
2016,08,04,06,35,16.50
2016,08,04,06,36,16.50
2016,08,04,06,37,16.50
2016,08,04,06,38,16.50
2016,08,04,06,39,16.50
2016,08,04,06,40,16.50
2016,08,04,06,41,16.50
2016,08,04,06,42,16.50
2016,08,04,06,43,16.50
2016,08,04,06,44,16.60
2016,08,04,06,45,16.60
2016,08,04,06,46,16.60
2016,08,04,06,47,16.60
2016,08,04,06,48,16.60
2016,08,04,06,49,16.70
2016,08,04,06,50,16.70
2016,08,04,06,51,16.70
2016,08,04,06,52,16.70
2016,08,04,06,53,16.70
2016,08,04,06,54,16.70
2016,08,04,06,55,16.80
2016,08,04,06,56,16.80
2016,08,04,06,57,16.80
2016,08,04,06,58,16.80
2016,08,04,06,59,16.80
2016,08,04,07,00,16.80
2016,08,04,07,01,16.90
2016,08,04,07,02,16.90
2016,08,04,07,03,16.90
2016,08,04,07,04,16.90
2016,08,04,07,05,16.90
2016,08,04,07,06,16.90
2016,08,04,07,07,16.90
2016,08,04,07,08,17.00
2016,08,04,07,09,17.00
2016,08,04,07,10,17.00
2016,08,04,07,11,17.00
2016,08,04,07,12,17.00
2016,08,04,07,13,17.10
2016,08,04,07,14,17.10
2016,08,04,07,15,17.10
2016,08,04,07,16,17.10
2016,08,04,07,17,17.10
2016,08,04,07,18,17.10
2016,08,04,07,19,17.10
2016,08,04,07,20,17.20
2016,08,04,07,21,17.20
2016,08,04,07,22,17.20
2016,08,04,07,23,17.20
2016,08,04,07,24,17.20
2016,08,04,07,25,17.20
2016,08,04,07,26,17.20
2016,08,04,07,27,17.20
2016,08,04,07,28,17.20
2016,08,04,07,29,17.30
2016,08,04,07,30,17.30
2016,08,04,07,31,17.30
2016,08,04,07,32,17.30
2016,08,04,07,33,17.30
2016,08,04,07,34,17.30
2016,08,04,07,35,17.30
2016,08,04,07,36,17.30
2016,08,04,07,37,17.40
2016,08,04,07,38,17.40
2016,08,04,07,39,17.40
2016,08,04,07,40,17.40
2016,08,04,07,41,17.40
2016,08,04,07,42,17.40
2016,08,04,07,43,17.40
2016,08,04,07,44,17.40
2016,08,04,07,45,17.40
2016,08,04,07,46,17.40
2016,08,04,07,47,17.40
2016,08,04,07,48,17.40
2016,08,04,07,49,17.40
2016,08,04,07,50,17.40
2016,08,04,07,51,17.40
2016,08,04,07,52,17.40
2016,08,04,07,53,17.40
2016,08,04,07,54,17.40
2016,08,04,07,55,17.40
2016,08,04,07,56,17.50
2016,08,04,07,57,17.50
2016,08,04,07,58,17.50
2016,08,04,07,59,17.50
2016,08,04,08,00,17.60
2016,08,04,08,01,17.60
2016,08,04,08,02,17.60
2016,08,04,08,03,17.60
2016,08,04,08,04,17.60
2016,08,04,08,05,17.60
2016,08,04,08,06,17.60
2016,08,04,08,07,17.70
2016,08,04,08,08,17.70
2016,08,04,08,09,17.70
2016,08,04,08,10,17.70
2016,08,04,08,11,17.70
2016,08,04,08,12,17.70
2016,08,04,08,13,17.70
2016,08,04,08,14,17.70
2016,08,04,08,15,17.70
2016,08,04,08,16,17.70
2016,08,04,08,17,17.70
2016,08,04,08,18,17.80
2016,08,04,08,19,17.80
2016,08,04,08,20,17.80
2016,08,04,08,21,17.80
2016,08,04,08,22,17.80
2016,08,04,08,23,17.80
2016,08,04,08,24,17.90
2016,08,04,08,25,17.90
2016,08,04,08,26,17.90
2016,08,04,08,27,17.90
2016,08,04,08,28,17.90
2016,08,04,08,29,17.90
2016,08,04,08,30,17.90
2016,08,04,08,31,17.90
2016,08,04,08,32,17.90
2016,08,04,08,33,17.90
2016,08,04,08,34,17.90
2016,08,04,08,35,17.90
2016,08,04,08,36,17.90
2016,08,04,08,37,17.90
2016,08,04,08,38,17.90
2016,08,04,08,39,17.90
2016,08,04,08,40,17.90
2016,08,04,08,41,18.00
2016,08,04,08,42,18.00
2016,08,04,08,43,18.10
2016,08,04,08,44,18.10
2016,08,04,08,45,18.10
2016,08,04,08,46,18.20
2016,08,04,08,47,18.20
2016,08,04,08,48,18.20
2016,08,04,08,49,18.20
2016,08,04,08,50,18.20
2016,08,04,08,51,18.20
2016,08,04,08,52,18.20
2016,08,04,08,53,18.20
2016,08,04,08,54,18.20
2016,08,04,08,55,18.30
2016,08,04,08,56,18.30
2016,08,04,08,57,18.30
2016,08,04,08,58,18.20
2016,08,04,08,59,18.20
2016,08,04,09,00,18.20
2016,08,04,09,01,18.20
2016,08,04,09,02,18.20
2016,08,04,09,03,18.20
2016,08,04,09,04,18.20
2016,08,04,09,05,18.20
2016,08,04,09,06,18.20
2016,08,04,09,07,18.20
2016,08,04,09,08,18.20
2016,08,04,09,09,18.20
2016,08,04,09,10,18.20
2016,08,04,09,11,18.20
2016,08,04,09,12,18.20
2016,08,04,09,13,18.20
2016,08,04,09,14,18.20
2016,08,04,09,15,18.20
2016,08,04,09,16,18.20
2016,08,04,09,17,18.20
2016,08,04,09,18,18.20
2016,08,04,09,19,18.20
2016,08,04,09,20,18.20
2016,08,04,09,21,18.20
2016,08,04,09,22,18.20
2016,08,04,09,23,18.30
2016,08,04,09,24,18.30
2016,08,04,09,25,18.30
2016,08,04,09,26,18.30
2016,08,04,09,27,18.30
2016,08,04,09,28,18.30
2016,08,04,09,29,18.30
2016,08,04,09,30,18.20
2016,08,04,09,31,18.20
2016,08,04,09,32,18.20
2016,08,04,09,33,18.20
2016,08,04,09,34,18.20
2016,08,04,09,35,18.20
2016,08,04,09,36,18.20
2016,08,04,09,37,18.20
2016,08,04,09,38,18.10
2016,08,04,09,39,18.10
2016,08,04,09,40,18.10
2016,08,04,09,41,18.10
2016,08,04,09,42,18.20
2016,08,04,09,43,18.20
2016,08,04,09,44,18.30
2016,08,04,09,45,18.30
2016,08,04,09,46,18.30
2016,08,04,09,47,18.30
2016,08,04,09,48,18.30
2016,08,04,09,49,18.40
2016,08,04,09,50,18.30
2016,08,04,09,51,18.30
2016,08,04,09,52,18.30
2016,08,04,09,53,18.30
2016,08,04,09,54,18.40
2016,08,04,09,55,18.50
2016,08,04,09,56,18.50
2016,08,04,09,57,18.60
2016,08,04,09,58,18.60
2016,08,04,09,59,18.70
2016,08,04,10,00,18.70
2016,08,04,10,01,18.70
2016,08,04,10,02,18.80
2016,08,04,10,03,18.80
2016,08,04,10,04,18.80
2016,08,04,10,05,18.80
2016,08,04,10,06,18.80
2016,08,04,10,07,18.80
2016,08,04,10,08,18.80
2016,08,04,10,09,18.80
2016,08,04,10,10,18.80
2016,08,04,10,11,18.80
2016,08,04,10,12,18.80
2016,08,04,10,13,18.90
2016,08,04,10,14,18.90
2016,08,04,10,15,18.80
2016,08,04,10,16,18.80
2016,08,04,10,17,18.80
2016,08,04,10,18,18.80
2016,08,04,10,19,18.80
2016,08,04,10,20,18.90
2016,08,04,10,21,18.90
2016,08,04,10,22,18.90
2016,08,04,10,23,19.00
2016,08,04,10,24,19.00
2016,08,04,10,25,19.00
2016,08,04,10,26,19.00
2016,08,04,10,27,18.90
2016,08,04,10,28,18.90
2016,08,04,10,29,18.90
2016,08,04,10,30,18.80
2016,08,04,10,31,18.80
2016,08,04,10,32,18.80
2016,08,04,10,33,18.80
2016,08,04,10,34,18.80
2016,08,04,10,35,18.70
2016,08,04,10,36,18.70
2016,08,04,10,37,18.70
2016,08,04,10,38,18.70
2016,08,04,10,39,18.60
2016,08,04,10,40,18.60
2016,08,04,10,41,18.60
2016,08,04,10,42,18.60
2016,08,04,10,43,18.60
2016,08,04,10,44,18.60
2016,08,04,10,45,18.70
2016,08,04,10,46,18.70
2016,08,04,10,47,18.80
2016,08,04,10,48,18.80
2016,08,04,10,49,18.80
2016,08,04,10,50,18.80
2016,08,04,10,51,18.80
2016,08,04,10,52,18.80
2016,08,04,10,53,18.90
2016,08,04,10,54,18.90
2016,08,04,10,55,19.00
2016,08,04,10,56,19.00
2016,08,04,10,57,19.10
2016,08,04,10,58,19.10
2016,08,04,10,59,19.20
2016,08,04,11,00,19.20
2016,08,04,11,01,19.20
2016,08,04,11,02,19.20
2016,08,04,11,03,19.30
2016,08,04,11,04,19.30
2016,08,04,11,05,19.40
2016,08,04,11,06,19.40
2016,08,04,11,07,19.50
2016,08,04,11,08,19.50
2016,08,04,11,09,19.60
2016,08,04,11,10,19.60
2016,08,04,11,11,19.70
2016,08,04,11,12,19.70
2016,08,04,11,13,19.80
2016,08,04,11,14,19.80
2016,08,04,11,15,19.80
2016,08,04,11,16,19.80
2016,08,04,11,17,19.80
2016,08,04,11,18,19.80
2016,08,04,11,19,19.80
2016,08,04,11,20,19.80
2016,08,04,11,21,19.80
2016,08,04,11,22,19.80
2016,08,04,11,23,19.90
2016,08,04,11,24,19.90
2016,08,04,11,25,19.90
2016,08,04,11,26,19.90
2016,08,04,11,27,19.90
2016,08,04,11,28,19.90
2016,08,04,11,29,19.90
2016,08,04,11,30,19.90
2016,08,04,11,31,20.00
2016,08,04,11,32,20.00
2016,08,04,11,33,20.10
2016,08,04,11,34,20.10
2016,08,04,11,35,20.20
2016,08,04,11,36,20.20
2016,08,04,11,37,20.30
2016,08,04,11,38,20.30
2016,08,04,11,39,20.30
2016,08,04,11,40,20.30
2016,08,04,11,41,20.20
2016,08,04,11,42,20.20
2016,08,04,11,43,20.20
2016,08,04,11,44,20.10
2016,08,04,11,45,20.10
2016,08,04,11,46,20.10
2016,08,04,11,47,20.10
2016,08,04,11,48,20.20
2016,08,04,11,49,20.20
2016,08,04,11,50,20.20
2016,08,04,11,51,20.20
2016,08,04,11,52,20.20
2016,08,04,11,53,20.30
2016,08,04,11,54,20.40
2016,08,04,11,55,20.40
2016,08,04,11,56,20.40
2016,08,04,11,57,20.40
2016,08,04,11,58,20.50
2016,08,04,11,59,20.40
2016,08,04,12,00,20.40
2016,08,04,12,01,20.40
2016,08,04,12,02,20.40
2016,08,04,12,03,20.40
2016,08,04,12,04,20.40
2016,08,04,12,05,20.40
2016,08,04,12,06,20.40
2016,08,04,12,07,20.40
2016,08,04,12,08,20.40
2016,08,04,12,09,20.40
2016,08,04,12,10,20.30
2016,08,04,12,11,20.20
2016,08,04,12,12,20.20
2016,08,04,12,13,20.20
2016,08,04,12,14,20.20
2016,08,04,12,15,20.10
2016,08,04,12,16,20.10
2016,08,04,12,17,20.10
2016,08,04,12,18,20.10
2016,08,04,12,19,20.20
2016,08,04,12,20,20.20
2016,08,04,12,21,20.30
2016,08,04,12,22,20.30
2016,08,04,12,23,20.40
2016,08,04,12,24,20.40
2016,08,04,12,25,20.40
2016,08,04,12,26,20.40
2016,08,04,12,27,20.40
2016,08,04,12,28,20.40
2016,08,04,12,29,20.40
2016,08,04,12,30,20.40
2016,08,04,12,31,20.30
2016,08,04,12,32,20.40
2016,08,04,12,33,20.40
2016,08,04,12,34,20.40
2016,08,04,12,35,20.40
2016,08,04,12,36,20.40
2016,08,04,12,37,20.40
2016,08,04,12,38,20.40
2016,08,04,12,39,20.40
2016,08,04,12,40,20.40
2016,08,04,12,41,20.40
2016,08,04,12,42,20.40
2016,08,04,12,43,20.40
2016,08,04,12,44,20.40
2016,08,04,12,45,20.40
2016,08,04,12,46,20.40
2016,08,04,12,47,20.40
2016,08,04,12,48,20.40
2016,08,04,12,49,20.40
2016,08,04,12,50,20.50
2016,08,04,12,51,20.60
2016,08,04,12,52,20.60
2016,08,04,12,53,20.70
2016,08,04,12,54,20.60
2016,08,04,12,55,20.60
2016,08,04,12,56,20.50
2016,08,04,12,57,20.40
2016,08,04,12,58,20.40
2016,08,04,12,59,20.40
2016,08,04,13,00,20.50
2016,08,04,13,01,20.50
2016,08,04,13,02,20.60
2016,08,04,13,03,20.60
2016,08,04,13,04,20.70
2016,08,04,13,05,20.70
2016,08,04,13,06,20.60
2016,08,04,13,07,20.60
2016,08,04,13,08,20.70
2016,08,04,13,09,20.80
2016,08,04,13,10,20.90
2016,08,04,13,11,20.90
2016,08,04,13,12,21.00
2016,08,04,13,13,21.10
2016,08,04,13,14,21.20
2016,08,04,13,15,21.20
2016,08,04,13,16,21.30
2016,08,04,13,17,21.30
2016,08,04,13,18,21.30
2016,08,04,13,19,21.30
2016,08,04,13,20,21.30
2016,08,04,13,21,21.30
2016,08,04,13,22,21.30
2016,08,04,13,23,21.30
2016,08,04,13,24,21.30
2016,08,04,13,25,21.30
2016,08,04,13,26,21.30
2016,08,04,13,27,21.30
2016,08,04,13,28,21.20
2016,08,04,13,29,21.20
2016,08,04,13,30,21.20
2016,08,04,13,31,21.20
2016,08,04,13,32,21.20
2016,08,04,13,33,21.20
2016,08,04,13,34,21.20
2016,08,04,13,35,21.20
2016,08,04,13,36,21.20
2016,08,04,13,37,21.20
2016,08,04,13,38,21.20
2016,08,04,13,39,21.20
2016,08,04,13,40,21.20
2016,08,04,13,41,21.30
2016,08,04,13,42,21.30
2016,08,04,13,43,21.30
2016,08,04,13,44,21.30
2016,08,04,13,45,21.30
2016,08,04,13,46,21.30
2016,08,04,13,47,21.30
2016,08,04,13,48,21.30
2016,08,04,13,49,21.20
2016,08,04,13,50,21.20
2016,08,04,13,51,21.30
2016,08,04,13,52,21.30
2016,08,04,13,53,21.30
2016,08,04,13,54,21.30
2016,08,04,13,55,21.40
2016,08,04,13,56,21.40
2016,08,04,13,57,21.40
2016,08,04,13,58,21.40
2016,08,04,13,59,21.50
2016,08,04,14,00,21.50
2016,08,04,14,01,21.50
2016,08,04,14,02,21.50
2016,08,04,14,03,21.40
2016,08,04,14,04,21.30
2016,08,04,14,05,21.30
2016,08,04,14,06,21.30
2016,08,04,14,07,21.30
2016,08,04,14,08,21.30
2016,08,04,14,09,21.30
2016,08,04,14,10,21.30
2016,08,04,14,11,21.20
2016,08,04,14,12,21.20
2016,08,04,14,13,21.30
2016,08,04,14,14,21.30
2016,08,04,14,15,21.40
2016,08,04,14,16,21.40
2016,08,04,14,17,21.40
2016,08,04,14,18,21.40
2016,08,04,14,19,21.30
2016,08,04,14,20,21.20
2016,08,04,14,21,21.20
2016,08,04,14,22,21.10
2016,08,04,14,23,21.10
2016,08,04,14,24,21.20
2016,08,04,14,25,21.20
2016,08,04,14,26,21.20
2016,08,04,14,27,21.20
2016,08,04,14,28,21.10
2016,08,04,14,29,21.10
2016,08,04,14,30,21.10
2016,08,04,14,31,21.00
2016,08,04,14,32,21.00
2016,08,04,14,33,21.00
2016,08,04,14,34,21.10
2016,08,04,14,35,21.10
2016,08,04,14,36,21.20
2016,08,04,14,37,21.10
2016,08,04,14,38,21.10
2016,08,04,14,39,21.20
2016,08,04,14,40,21.20
2016,08,04,14,41,21.20
2016,08,04,14,42,21.20
2016,08,04,14,43,21.20
2016,08,04,14,44,21.20
2016,08,04,14,45,21.10
2016,08,04,14,46,21.10
2016,08,04,14,47,21.10
2016,08,04,14,48,21.10
2016,08,04,14,49,21.10
2016,08,04,14,50,21.10
2016,08,04,14,51,21.10
2016,08,04,14,52,21.10
2016,08,04,14,53,21.10
2016,08,04,14,54,21.20
2016,08,04,14,55,21.30
2016,08,04,14,56,21.30
2016,08,04,14,57,21.30
2016,08,04,14,58,21.40
2016,08,04,14,59,21.40
2016,08,04,15,00,21.40
2016,08,04,15,01,21.40
2016,08,04,15,02,21.40
2016,08,04,15,03,21.40
2016,08,04,15,04,21.40
2016,08,04,15,05,21.40
2016,08,04,15,06,21.50
2016,08,04,15,07,21.60
2016,08,04,15,08,21.60
2016,08,04,15,09,21.60
2016,08,04,15,10,21.60
2016,08,04,15,11,21.60
2016,08,04,15,12,21.70
2016,08,04,15,13,21.70
2016,08,04,15,14,21.80
2016,08,04,15,15,21.80
2016,08,04,15,16,21.80
2016,08,04,15,17,21.80
2016,08,04,15,18,21.80
2016,08,04,15,19,21.70
2016,08,04,15,20,21.70
2016,08,04,15,21,21.60
2016,08,04,15,22,21.60
2016,08,04,15,23,21.60
2016,08,04,15,24,21.70
2016,08,04,15,25,21.70
2016,08,04,15,26,21.80
2016,08,04,15,27,21.80
2016,08,04,15,28,21.80
2016,08,04,15,29,21.90
2016,08,04,15,30,21.90
2016,08,04,15,31,21.90
2016,08,04,15,32,21.90
2016,08,04,15,33,21.90
2016,08,04,15,34,21.90
2016,08,04,15,35,21.80
2016,08,04,15,36,21.80
2016,08,04,15,37,21.80
2016,08,04,15,38,21.70
2016,08,04,15,39,21.70
2016,08,04,15,40,21.70
2016,08,04,15,41,21.70
2016,08,04,15,42,21.80
2016,08,04,15,43,21.80
2016,08,04,15,44,21.90
2016,08,04,15,45,21.90
2016,08,04,15,46,22.00
2016,08,04,15,47,22.00
2016,08,04,15,48,22.10
2016,08,04,15,49,22.10
2016,08,04,15,50,22.10
2016,08,04,15,51,22.20
2016,08,04,15,52,22.20
2016,08,04,15,53,22.10
2016,08,04,15,54,22.10
2016,08,04,15,55,22.10
2016,08,04,15,56,22.10
2016,08,04,15,57,22.20
2016,08,04,15,58,22.20
2016,08,04,15,59,22.20
2016,08,04,16,00,22.10
2016,08,04,16,01,22.10
2016,08,04,16,02,22.10
2016,08,04,16,03,22.10
2016,08,04,16,04,22.10
2016,08,04,16,05,22.20
2016,08,04,16,06,22.20
2016,08,04,16,07,22.20
2016,08,04,16,08,22.30
2016,08,04,16,09,22.30
2016,08,04,16,10,22.40
2016,08,04,16,11,22.40
2016,08,04,16,12,22.50
2016,08,04,16,13,22.60
2016,08,04,16,14,22.60
2016,08,04,16,15,22.70
2016,08,04,16,16,22.70
2016,08,04,16,17,22.70
2016,08,04,16,18,22.70
2016,08,04,16,19,22.70
2016,08,04,16,20,22.70
2016,08,04,16,21,22.80
2016,08,04,16,22,22.80
2016,08,04,16,23,22.80
2016,08,04,16,24,22.80
2016,08,04,16,25,22.80
2016,08,04,16,26,22.70
2016,08,04,16,27,22.70
2016,08,04,16,28,22.60
2016,08,04,16,29,22.50
2016,08,04,16,30,22.50
2016,08,04,16,31,22.40
2016,08,04,16,32,22.40
2016,08,04,16,33,22.40
2016,08,04,16,34,22.40
2016,08,04,16,35,22.40
2016,08,04,16,36,22.40
2016,08,04,16,37,22.40
2016,08,04,16,38,22.40
2016,08,04,16,39,22.40
2016,08,04,16,40,22.40
2016,08,04,16,41,22.40
2016,08,04,16,42,22.40
2016,08,04,16,43,22.50
2016,08,04,16,44,22.50
2016,08,04,16,45,22.60
2016,08,04,16,46,22.50
2016,08,04,16,47,22.50
2016,08,04,16,48,22.60
2016,08,04,16,49,22.60
2016,08,04,16,50,22.60
2016,08,04,16,51,22.70
2016,08,04,16,52,22.70
2016,08,04,16,53,22.80
2016,08,04,16,54,22.90
2016,08,04,16,55,23.00
2016,08,04,16,56,23.10
2016,08,04,16,57,23.10
2016,08,04,16,58,23.10
2016,08,04,16,59,23.10
2016,08,04,17,00,23.20
2016,08,04,17,01,23.20
2016,08,04,17,02,23.20
2016,08,04,17,03,23.10
2016,08,04,17,04,23.00
2016,08,04,17,05,23.00
2016,08,04,17,06,23.00
2016,08,04,17,07,23.00
2016,08,04,17,08,23.00
2016,08,04,17,09,23.00
2016,08,04,17,10,23.00
2016,08,04,17,11,23.10
2016,08,04,17,12,23.00
2016,08,04,17,13,22.90
2016,08,04,17,14,22.90
2016,08,04,17,15,22.90
2016,08,04,17,16,22.90
2016,08,04,17,17,22.80
2016,08,04,17,18,22.80
2016,08,04,17,19,22.80